Location: Flurlingen
(47.6854°N, 8.6307°E)
Time: 23:24:49
(UTC+00:00)

Daily predictions for brighter satellites

Satellite Brightness Start Highest point End
(mag) Time Altitude Azimuth Time Altitude Azimuth Time Altitude Azimuth
COSMOS 2455 3.9 15:58:04 10° SSE 16:03:06 28° ESE 16:08:09 10° NE
Cosmos 2034 Rocket 4.1 15:57:41 10° S 16:03:42 59° E 16:09:44 10° NNE
Cosmos 990 Rocket 4.0 15:58:54 10° NNW 16:04:09 77° ENE 16:09:18 10° SSE
SMAP 3.6 16:00:26 10° SE 16:04:41 36° ENE 16:08:57 10° N
Lacrosse 5 rocket 2.5 16:01:50 10° NW 16:05:02 24° NNE 16:08:22 10° ENE
ATLAS CENTAUR R/B 3.6 15:55:48 10° SSW 16:07:07 58° SE 16:11:44 10° ENE
Cosmos 1656 4.1 16:04:59 10° NNW 16:10:30 69° WSW 16:16:03 10° SSE
USA 234 3.3 16:05:54 10° ESE 16:12:22 67° NNE 16:18:51 10° NW
SL-24 R/B - RUBIN 2 4.0 16:09:40 10° NNW 16:14:05 42° NE 16:18:13 10° ESE
NOSS 3-1 (A) 4.2 16:07:17 10° NW 16:14:46 86° SW 16:23:33 10° SE
ISS -3.7 16:12:16 10° WNW 16:15:39 63° NNE 16:19:01 10° E
NOAA 6 4.2 16:11:54 10° SE 16:16:50 49° ENE 16:21:46 10° N
Cosmos 1408 Rocket 4.1 16:15:02 10° NNW 16:19:22 66° W 16:23:42 10° S
NOSS 2-2 (D) 4.4 16:14:29 10° NNW 16:19:22 55° NE 16:26:08 10° ESE
NOSS 2-2 (E) 4.4 16:14:24 10° NW 16:19:30 65° NE 16:26:40 10° SE
Cosmos 1666 4.1 16:19:38 10° NNE 16:22:09 17° ENE 16:24:39 10° ESE
Cosmos 1634 Rocket 4.4 16:17:43 10° SSE 16:23:34 41° E 16:29:26 10° NNE
Cosmos 1151 Rocket 4.4 16:21:04 10° SE 16:24:05 19° E 16:27:07 10° NE
Cosmos 2026 Rocket 4.1 16:20:30 10° N 16:26:30 51° ENE 16:32:23 10° SSE
PSLV R/B 4.4 16:23:33 10° SE 16:26:49 30° ENE 16:30:09 10° N
Cosmos 1743 Rocket 3.5 16:24:21 10° N 16:28:42 85° ENE 16:33:02 10° S
Cosmos 2322 Rocket 3.7 16:25:24 10° N 16:28:59 17° NE 16:32:01 12° ENE
USA 305 3.8 16:25:21 10° WNW 16:29:15 34° N 16:32:40 13° ENE
CZ-4B R/B 2.9 16:25:26 10° SSE 16:29:27 83° WSW 16:33:18 10° NNW
Cosmos 2195 Rocket 4.5 16:24:12 10° N 16:30:20 64° ENE 16:36:29 10° SSE
Cosmos 1697 Rocket 2.7 16:24:51 10° NNW 16:30:31 89° ENE 16:36:08 10° SSE
Cosmos 1933 3.5 16:26:36 10° S 16:30:32 54° E 16:34:30 10° NNE
Cosmos 858 Rocket 4.5 16:26:36 10° NNW 16:31:54 67° ENE 16:37:08 10° SSE
SL-08 R/B 3.7 16:30:33 10° N 16:35:15 67° WNW 16:39:50 10° SSW
Cosmos 1980 Rocket 2.3 16:29:42 10° NNW 16:35:17 55° ENE 16:40:48 10° SE
Okean O Rocket 2.8 16:33:07 10° ESE 16:36:32 22° ENE 16:39:58 10° NNE
FengYun 1-2 T 4.3 16:32:23 10° SSE 16:37:59 89° ENE 16:43:34 10° NNW
Cosmos 540 Rocket 3.5 16:33:02 10° S 16:38:02 60° ESE 16:43:05 10° NNE
SJ 16-02 4.5 16:37:06 10° WNW 16:39:36 15° W 16:42:06 10° SW
Cosmos 2369 3.7 16:33:55 10° NNW 16:39:41 73° ENE 16:45:23 10° SE
Cosmos 1666 Rocket 4.2 16:35:56 10° N 16:39:58 33° ENE 16:43:57 10° SE
Cosmos 1809 Rocket 4.4 16:37:53 10° N 16:44:01 76° E 16:50:05 10° SSE
Cosmos 1812 3.5 16:42:31 10° SSE 16:45:54 30° E 16:48:49 13° NNE
SL-16 R/B 3.2 16:43:14 10° N 16:47:53 25° NE 16:51:23 14° E
ERBS 4.2 16:45:45 10° NW 16:48:02 18° N 16:49:40 13° NNE
CORIOLIS 4.1 16:44:35 10° SSE 16:50:00 83° ENE 16:55:28 10° NNW
Cosmos 2082 Rocket 2.4 16:46:26 10° S 16:51:55 52° ESE 16:56:54 13° NE
Cosmos 1814 Rocket 4.5 16:48:33 10° S 16:53:22 39° ESE 16:57:16 15° NE
SKYMED 2 4.5 16:53:03 16° NE 16:55:41 28° E 16:59:27 10° SSE
Cosmos 468 Rocket 4.5 16:52:06 10° SW 16:57:13 61° WNW 17:02:24 10° NNE
Cosmos 2333 Rocket 4.1 16:57:57 10° N 17:00:18 12° NNE 17:00:43 12° NE
MOS 1-B Rocket 4.2 16:55:45 10° NNE 17:01:33 53° E 17:08:08 10° S
USA 306 3.7 16:57:41 10° WNW 17:01:38 36° N 17:03:34 23° NE
CZ-4B DEB 4.2 16:57:20 10° SSE 17:02:51 90° SSE 17:08:23 10° NNW
Cosmos 2278 3.7 16:57:38 10° NNW 17:03:20 64° ENE 17:08:59 10° SE
Cosmos 1602 4.3 17:00:06 10° NNW 17:03:54 59° W 17:07:43 10° S
Sich 1 3.1 16:59:47 10° N 17:04:06 82° W 17:08:24 10° S
Cosmos 1818 3.8 16:59:04 10° NNW 17:04:22 47° NE 17:08:58 13° ESE
Cosmos 1939 Rocket 3.8 17:00:37 10° S 17:04:38 53° W 17:08:39 10° NNW
ARGOS 3.4 17:01:09 10° SE 17:06:16 45° ENE 17:11:24 10° N
Cosmos 1805 Rocket 4.2 17:04:28 10° NNW 17:08:44 58° W 17:12:59 10° S
Cosmos 1833 Rocket 3.2 17:06:19 10° SW 17:11:51 58° WNW 17:17:26 10° NNE
COSMOS 2406 3.5 17:10:01 10° SW 17:15:44 69° WNW 17:21:11 11° NNE
GEOS 3 Rocket 4.2 17:13:45 25° E 17:15:54 36° NE 17:20:35 10° NNW
deb Chang Zheng 4 3.5 17:13:22 10° SSE 17:17:36 58° ENE 17:21:51 10° N
USA 307 3.6 17:16:55 10° WNW 17:20:55 38° N 17:21:59 32° NE
USA 267 3.4 17:16:33 21° NE 17:21:13 73° NNW 17:27:44 10° WSW
Cosmos 2219 Rocket 4.1 17:18:41 10° N 17:20:35 13° NNE 17:20:35 13° NNE
Cosmos 1782 3.4 17:19:12 10° SSW 17:23:09 59° WNW 17:27:06 10° N
CZ-2C R/B 2.5 17:21:47 12° NNE 17:26:38 60° E 17:31:43 10° S
Cosmos 2208 Rocket 4.2 17:21:26 10° S 17:26:39 53° ESE 17:29:27 27° NE
Cosmos 1515 Rocket 4.5 17:23:50 10° SSE 17:26:52 30° ESE 17:26:52 30° ESE
Cosmos 1500 4.2 17:25:00 10° NNW 17:28:35 45° W 17:32:08 10° SSW
SL-08 RB Rocket 3.9 17:24:13 10° SE 17:28:38 46° ENE 17:33:03 10° N
CZ-2D R/B 3.8 17:25:17 10° S 17:29:03 58° W 17:32:50 10° NNW
Cosmos 2150 Rocket 4.1 17:25:24 10° NNW 17:30:25 48° ENE 17:33:12 24° ESE
CZ-4C R/B 3.0 17:23:55 10° NW 17:31:08 87° SW 17:39:37 10° SE
Meteor 2-16 Rocket 4.4 17:25:47 10° N 17:31:56 89° W 17:38:04 10° S
Meteor 2-6 Rocket 4.2 17:26:17 10° S 17:31:57 63° E 17:36:56 13° NNE
H-2A R/B 2.2 17:27:07 10° S 17:32:16 72° WSW 17:37:19 10° NNW
CZ-4B R/B 3.1 17:28:13 10° SSE 17:33:39 89° ENE 17:39:01 10° NNW
Cosmos 841 Rocket 3.9 17:30:56 10° SW 17:36:01 60° WNW 17:40:21 14° NNE
ATLAS CENTAUR R/B 4.1 17:37:50 10° NNW 17:38:12 10° N 17:38:33 10° N
YAOGAN 3 4.4 17:34:17 10° SSE 17:38:38 81° ENE 17:43:01 10° NNW
USA 308 3.4 17:39:30 10° WNW 17:43:34 42° NNE 17:43:39 42° NNE
COSMO-SKYMED 1 2.4 17:41:39 28° NNE 17:43:57 86° ESE 17:48:17 10° SSW
Lacrosse 5 rocket 1.1 17:40:42 10° NW 17:44:37 72° NE 17:44:49 70° ENE
Cosmos 1125 Rocket 3.5 17:40:27 10° NNW 17:45:39 58° ENE 17:47:32 37° SE
Cosmos 921 Rocket 3.2 17:41:49 10° S 17:45:22 49° SE 17:45:22 49° SE
COSMOS 2455 3.3 17:42:43 10° SW 17:48:40 60° NW 17:52:28 23° NNE
Cosmos 2279 Rocket 4.1 17:44:07 10° SSW 17:50:19 75° W 17:56:33 10° N
Cosmos 1633 Rocket 3.6 17:46:50 10° NNW 17:51:09 58° W 17:55:26 10° S
ATLAS 2AS CENTAUR R/B 4.1 17:46:15 10° NW 17:52:10 24° N 17:54:01 22° NNE
Meteor 2-15 Rocket 4.4 17:46:20 10° S 17:52:20 59° E 17:55:52 25° NNE
ISS -2.1 17:49:17 10° W 17:52:20 31° SW 17:53:03 28° S
Cosmos 2360 Rocket 3.1 17:48:14 10° NNW 17:52:12 31° NNE 17:52:12 31° NNE
Cosmos 2266 Rocket 3.9 17:47:36 10° N 17:54:00 74° E 18:00:25 10° SSE
YAOGAN 1 4.2 17:56:50 23° N 17:56:50 23° N 17:58:30 10° N
Cosmos 44 Rocket 3.2 17:49:21 10° NW 17:54:18 86° SW 17:56:04 39° SSE
USA 234 4.1 17:49:16 10° SSE 17:55:34 48° SW 18:01:52 10° WNW
Meteor 1-10 Rocket 4.1 17:51:52 10° S 17:57:37 74° E 18:00:37 29° NNE
Meteor 1-11 Rocket 3.6 17:52:13 10° N 17:57:50 69° ENE 18:03:32 10° SSE
Cosmos 1666 4.1 17:54:23 10° NNW 17:57:51 38° W 18:01:17 10° SSW
Cosmos 1151 Rocket 4.0 17:57:07 10° SSW 18:01:17 46° WNW 18:04:41 15° N
USA 305 3.7 18:05:31 10° WNW 18:08:40 42° NNW 18:08:40 42° NNW
Cosmos 1900 4.3 18:06:34 10° SW 18:11:26 77° NW 18:11:48 72° N
Okean O Rocket 2.6 18:08:18 10° S 18:12:36 47° W 18:16:55 10° NNW
Feng Yun 1-1 Rocket 4.4 18:07:46 10° SSE 18:13:42 82° WSW 18:19:35 10° NNW
Cosmos 2322 Rocket 2.1 18:08:27 10° NNW 18:13:54 67° NE 18:13:54 67° NE
Meteor 2-15 4.5 18:08:55 10° SSW 18:15:01 77° W 18:21:06 10° N
Landsat 5 4.0 18:16:56 55° WSW 18:16:56 55° WSW 18:20:22 10° SSW
Cosmos 1980 Rocket 4.2 18:14:17 10° NW 18:18:56 27° WSW 18:23:31 10° SSW
Cosmos 1470 Rocket 4.5 18:16:55 10° NNW 18:21:14 49° W 18:25:32 10° SSW
SL-16 R/B 2.3 18:26:52 10° NNW 18:32:33 71° WSW 18:33:20 61° SSW
Cosmos 2082 Rocket 3.7 18:31:15 10° WSW 18:36:16 31° NW 18:38:46 22° N
ATLAS CENTAUR R/B 3.7 18:32:33 10° W 18:37:44 29° NW 18:37:44 29° NW
Cosmos 2333 Rocket 4.0 18:40:42 10° NNW 18:42:44 21° N 18:42:44 21° N
GEOS 3 Rocket 4.4 18:54:52 49° WNW 18:54:52 49° WNW 18:58:55 10° NW
USA 267 4.0 19:03:55 42° NNW 19:03:55 42° NNW 19:09:49 10° WNW
Cosmos 2219 Rocket 4.4 19:01:10 10° NNW 19:02:19 16° NNW 19:02:19 16° NNW
Cosmos 2360 Rocket 4.3 19:32:07 10° NW 19:33:59 21° NW 19:33:59 21° NW
ATLAS 2AS CENTAUR R/B 4.4 19:38:11 10° NW 19:41:27 25° NNW 19:41:27 25° NNW
